Starlink 30359

operational
NORAD ID: 57779 Int'l Des: 2023-134 Owner: SPXS Country: US Constellation: starlink
LEOCIRCULAR

About Starlink 30359

Description loading...

Live Position

Loading 3D Globe...

Upcoming Passes

Altitude History

Altitude vs Time

uPlot chart will show altitude changes over time

Two-Line Element Set

1 57779U 23134J 25259.48997039 -.00000314 00000-0 -81917-5 0 9991
2 57779 43.0031 51.5349 0001135 266.4625 93.6087 15.02536349113417
Epoch: Sep 16, 2025 • Age: 39 hours

Current Status

Altitude 562.8 km
Velocity 7.59 km/s
Sub-Earth Point 42.34°N, 85.76°E
Launch Date Sep 4, 2023
Age 2 years
Type internet

Technical Details

Classification Payload
Mass 730.00 kg
Dry Mass 700.00 kg
Total Mass 730.00 kg
Length 0.30 m
Diameter 4.10 m
Span 29.00 m
Shape Box + pan
Manufacturer SPXS
Bus Type Starlink V2M
Phase Status In Orbit
Owner/State SPXS/US

Large Constellations

Loading constellations...